Project,Study,Ord_Occ,Event_Num,Cast_ID,Date_Time_UTC,Date_Time_PST,Lat_Dec,Lon_Dec,Sta_ID,Line,Sta,Depth,Pressure,PrQ,Temp1,Temp1Q,Temp2,Temp2Q,TempAve,Salt1,Salt1Q,Salt1_Corr,Salt2,Salt2Q,Salt2_Corr,SaltAve_Corr,Ox1,Ox1Q,Ox1_CruiseCorr,Ox1_StaCorr,Ox2,Ox2Q,Ox2_CruiseCorr,Ox2_StaCorr,OxAve_StaCorr,Ox1uM,Ox1uM_CruiseCorr,Ox1uM_StaCorr,Ox2uM,Ox2uM_CruiseCorr,Ox2uM_StaCorr,OxAveuM_StaCorr,FluorV,FluorQ,EstChl_CruiseCorr,EstChl_StaCorr,ISUSV,ISUSQ,EstNO3_CruiseCorr,EstNO3_StaCorr,SigThetaTS1,SigThetaTS1Q,SigThetaTS2,SigThetaTS2Q,BAT,XMiss,TransQ,pH,pHQ,SPAR,SPARQ,PAR,PARQ,PoT1,PoT2,DynHt,SVA,OxSat1,OxSat2,BTL_Depth,BTL_Temp,SaltB,OxB,OxBuM,Chl-a,Phaeo,NO3,NO2,NH4,PO4,SIL
CalCOFI,2105SH,028,,2105_028u,10-May-2021 02:30:02,09-May-2021 18:30:02,33.49012,-119.32328,086.7 045.0,086.7,045.0,518.000,522.358,,6.0858,,6.0929,,6.0894,34.3284,,34.3296,34.3285,,34.3304,34.3300,0.2411,,0.3182,,0.2501,,0.3185,,,10.482,13.4567,14.4274,10.876,16.4491,14.9712,14.6993,0.0360,,,,0.5801,,0.0000,,27.0169,,27.0160,,,,,,,,,,,6.0399,6.0470,0.7729,110.636,3.480,3.612,,,,,,,,,,,,
CalCOFI,2105SH,028,,2105_028u,10-May-2021 02:30:08,09-May-2021 18:30:08,33.49011,-119.32329,086.7 045.0,086.7,045.0,517.000,521.349,,6.0914,,6.0996,,6.0955,34.3283,,34.3295,34.3282,,34.3301,34.3298,0.2414,,0.3186,,0.2503,,0.3187,,,10.498,13.4734,14.4441,10.885,16.4664,14.9804,14.7123,0.0362,,,,0.5792,,0.0000,,27.0161,,27.0150,,,,,,,,,,,6.0456,6.0537,0.7735,110.705,3.486,3.616,517,6.091,34.3239,0.380,16.52,,,39.54,0.00,0.00,3.24,71.22
CalCOFI,2105SH,028,,2105_028u,10-May-2021 02:30:32,09-May-2021 18:30:32,33.49013,-119.32332,086.7 045.0,086.7,045.0,516.000,520.339,,6.1005,,6.0989,,6.0997,34.3275,,34.3287,34.3282,,34.3301,34.3294,0.2410,,0.3181,,0.2476,,0.3159,,,10.478,13.4525,14.4233,10.766,16.4448,14.8582,14.6408,0.0359,,,,0.5781,,0.0000,,27.0143,,27.0151,,,,,,,,,,,6.0547,6.0531,0.7758,110.871,3.480,3.576,,,,,,,,,,,,
CalCOFI,2105SH,028,,2105_028u,10-May-2021 02:30:56,09-May-2021 18:30:56,33.49014,-119.32334,086.7 045.0,086.7,045.0,515.000,519.329,,6.1064,,6.1059,,6.1062,34.3266,,34.3278,34.3275,,34.3294,34.3286,0.2410,,0.3181,,0.2477,,0.3160,,,10.479,13.4535,14.4243,10.772,16.4459,14.8643,14.6443,0.0358,,,,0.5777,,0.0000,,27.0128,,27.0136,,,,,,,,,,,6.0606,6.0602,0.7781,111.002,3.481,3.578,,,,,,,,,,,,
CalCOFI,2105SH,028,,2105_028u,10-May-2021 02:30:58,09-May-2021 18:30:58,33.49014,-119.32334,086.7 045.0,086.7,045.0,514.000,518.319,,6.1090,,6.1082,,6.1086,34.3262,,34.3274,34.3269,,34.3288,34.3281,0.2409,,0.3180,,0.2448,,0.3130,,,10.477,13.4515,14.4222,10.646,16.4437,14.7349,14.5786,0.0366,,,,0.5778,,0.0000,,27.0122,,27.0129,,,,,,,,,,,6.0634,6.0626,0.7781,111.051,3.481,3.537,,,,,,,,,,,,
CalCOFI,2105SH,028,,2105_028u,10-May-2021 02:30:59,09-May-2021 18:30:59,33.49014,-119.32334,086.7 045.0,086.7,045.0,513.000,517.310,,6.1090,,6.1088,,6.1089,34.3262,,34.3274,34.3270,,34.3289,34.3282,0.2409,,0.3180,,0.2555,,0.3240,,,10.475,13.4494,14.4202,11.110,16.4415,15.2116,14.8159,0.0360,,,,0.5778,,0.0000,,27.0122,,27.0128,,,,,,,,,,,6.0635,6.0632,0.7781,111.037,3.480,3.691,,,,,,,,,,,,
CalCOFI,2105SH,028,,2105_028u,10-May-2021 02:31:00,09-May-2021 18:31:00,33.49014,-119.32334,086.7 045.0,086.7,045.0,512.000,516.300,,6.1129,,6.1097,,6.1113,34.3257,,34.3269,34.3269,,34.3288,34.3279,0.2408,,0.3179,,0.2544,,0.3229,,,10.473,13.4473,14.4181,11.063,16.4394,15.1633,14.7907,0.0366,,,,0.5779,,0.0000,,27.0112,,27.0126,,,,,,,,,,,6.0674,6.0643,0.7781,111.117,3.480,3.675,,,,,,,,,,,,
CalCOFI,2105SH,028,,2105_028u,10-May-2021 02:31:00,09-May-2021 18:31:00,33.49014,-119.32336,086.7 045.0,086.7,045.0,511.000,515.291,,6.1199,,6.1164,,6.1182,34.3250,,34.3262,34.3262,,34.3281,34.3272,0.2417,,0.3189,,0.2497,,0.3180,,,10.511,13.4870,14.4576,10.861,16.4804,14.9558,14.7067,0.0360,,,,0.5780,,0.0000,,27.0098,,27.0112,,,,,,,,,,,6.0745,6.0710,0.7781,111.245,3.493,3.609,,,,,,,,,,,,
CalCOFI,2105SH,028,,2105_028u,10-May-2021 02:31:01,09-May-2021 18:31:01,33.49014,-119.32336,086.7 045.0,086.7,045.0,510.000,514.281,,6.1223,,6.1215,,6.1219,34.3254,,34.3266,34.3256,,34.3275,34.3271,0.2486,,0.3261,,0.2498,,0.3181,,,10.812,13.8017,14.7708,10.861,16.8055,14.9558,14.8633,0.0351,,,,0.5781,,0.0000,,27.0098,,27.0100,,,,,,,,,,,6.0769,6.0762,0.7781,111.236,3.593,3.609,,,,,,,,,,,,
CalCOFI,2105SH,028,,2105_028u,10-May-2021 02:31:02,09-May-2021 18:31:02,33.49014,-119.32336,086.7 045.0,086.7,045.0,509.000,513.271,,6.1237,,6.1254,,6.1246,34.3253,,34.3265,34.3252,,34.3271,34.3268,0.2516,,0.3292,,0.2497,,0.3180,,,10.941,13.9365,14.9051,10.858,16.9448,14.9527,14.9289,0.0359,,,,0.5782,,0.0000,,27.0096,,27.0093,,,,,,,,,,,6.0785,6.0802,0.7781,111.244,3.636,3.609,,,,,,,,,,,,
CalCOFI,2105SH,028,,2105_028u,10-May-2021 02:31:03,09-May-2021 18:31:03,33.49014,-119.32336,086.7 045.0,086.7,045.0,508.000,512.262,,6.1331,,6.1352,,6.1342,34.3243,,34.3255,34.3253,,34.3272,34.3264,0.2456,,0.3229,,0.2504,,0.3188,,,10.681,13.6647,14.6345,10.890,16.6640,14.9856,14.8101,0.0357,,,,0.5783,,0.0000,,27.0075,,27.0081,,,,,,,,,,,6.0879,6.0900,0.7781,111.434,3.551,3.620,,,,,,,,,,,,
CalCOFI,2105SH,028,,2105_028u,10-May-2021 02:31:04,09-May-2021 18:31:04,33.49014,-119.32336,086.7 045.0,086.7,045.0,507.000,511.252,,6.1392,,6.1429,,6.1411,34.3242,,34.3254,34.3250,,34.3269,34.3262,0.2456,,0.3229,,0.2573,,0.3259,,,10.679,13.6626,14.6324,11.187,16.6619,15.2907,14.9616,0.0357,,,,0.5785,,0.0000,,27.0067,,27.0068,,,,,,,,,,,6.0941,6.0978,0.7781,111.510,3.550,3.719,,,,,,,,,,,,
CalCOFI,2105SH,028,,2105_028u,10-May-2021 02:31:05,09-May-2021 18:31:05,33.49014,-119.32336,086.7 045.0,086.7,045.0,506.000,510.242,,6.1423,,6.1485,,6.1454,34.3237,,34.3249,34.3248,,34.3267,34.3258,0.2469,,0.3243,,0.2544,,0.3229,,,10.735,13.7212,14.6907,11.062,16.7223,15.1623,14.9265,0.0357,,,,0.5787,,0.0000,,27.0058,,27.0059,,,,,,,,,,,6.0973,6.1035,0.7781,111.574,3.569,3.678,,,,,,,,,,,,
CalCOFI,2105SH,028,,2105_028u,10-May-2021 02:31:06,09-May-2021 18:31:06,33.49014,-119.32336,086.7 045.0,086.7,045.0,505.000,509.233,,6.1462,,6.1451,,6.1457,34.3228,,34.3240,34.3242,,34.3261,34.3251,0.2514,,0.3290,,0.2561,,0.3247,,,10.933,13.9282,14.8967,11.135,16.9362,15.2373,15.0670,0.0366,,,,0.5788,,0.0000,,27.0047,,27.0059,,,,,,,,,,,6.1013,6.1001,0.7781,111.677,3.635,3.702,,,,,,,,,,,,
CalCOFI,2105SH,028,,2105_028u,10-May-2021 02:31:06,09-May-2021 18:31:06,33.49014,-119.32336,086.7 045.0,086.7,045.0,504.000,508.223,,6.1535,,6.1456,,6.1496,34.3228,,34.3240,34.3248,,34.3267,34.3254,0.2548,,0.3326,,0.2554,,0.3239,,,11.080,14.0818,15.0497,11.106,17.0949,15.2075,15.1286,0.0366,,,,0.5790,,0.0000,,27.0037,,27.0063,,,,,,,,,,,6.1086,6.1007,0.7781,111.761,3.684,3.693,,,,,,,,,,,,
CalCOFI,2105SH,028,,2105_028u,10-May-2021 02:31:07,09-May-2021 18:31:07,33.49014,-119.32336,086.7 045.0,086.7,045.0,503.000,507.214,,6.1581,,6.1485,,6.1533,34.3222,,34.3234,34.3250,,34.3269,34.3252,0.2498,,0.3273,,0.2554,,0.3239,,,10.861,13.8529,14.8218,11.105,16.8584,15.2064,15.0141,0.0362,,,,0.5793,,0.0000,,27.0027,,27.0061,,,,,,,,,,,6.1133,6.1037,0.7781,111.849,3.612,3.692,,,,,,,,,,,,
CalCOFI,2105SH,028,,2105_028u,10-May-2021 02:31:08,09-May-2021 18:31:08,33.49014,-119.32336,086.7 045.0,086.7,045.0,502.000,506.204,,6.1681,,6.1623,,6.1652,34.3218,,34.3230,34.3237,,34.3256,34.3243,0.2496,,0.3271,,0.2623,,0.3311,,,10.853,13.8445,14.8135,11.408,16.8498,15.5177,15.1656,0.0356,,,,0.5795,,0.0000,,27.0010,,27.0032,,,,,,,,,,,6.1234,6.1176,0.7781,112.004,3.610,3.794,,,,,,,,,,,,
CalCOFI,2105SH,028,,2105_028u,10-May-2021 02:31:09,09-May-2021 18:31:09,33.49014,-119.32336,086.7 045.0,086.7,045.0,501.000,505.194,,6.1760,,6.1787,,6.1774,34.3212,,34.3224,34.3226,,34.3245,34.3235,0.2549,,0.3327,,0.2629,,0.3317,,,11.083,14.0850,15.0528,11.432,17.0982,15.5424,15.2976,0.0363,,,,0.5798,,0.0000,,26.9996,,27.0003,,,,,,,,,,,6.1313,6.1340,0.7781,112.133,3.688,3.804,,,,,,,,,,,,
CalCOFI,2105SH,028,,2105_028u,10-May-2021 02:31:10,09-May-2021 18:31:10,33.49015,-119.32336,086.7 045.0,086.7,045.0,500.000,504.185,,6.1724,,6.1763,,6.1744,34.3215,,34.3227,34.3220,,34.3239,34.3233,0.2603,,0.3383,,0.2579,,0.3265,,,11.317,14.3296,15.2963,11.212,17.3509,15.3164,15.3064,0.0357,,,,0.5801,,0.0000,,27.0002,,27.0001,,,,,,,,,,,6.1278,6.1317,0.7781,112.053,3.765,3.730,,,,,,,,,,,,
CalCOFI,2105SH,028,,2105_028u,10-May-2021 02:31:11,09-May-2021 18:31:11,33.49016,-119.32336,086.7 045.0,086.7,045.0,499.000,503.175,,6.1820,,6.1748,,6.1784,34.3198,,34.3210,34.3224,,34.3243,34.3227,0.2549,,0.3327,,0.2601,,0.3288,,,11.085,14.0871,15.0549,11.311,17.1003,15.4181,15.2365,0.0359,,,,0.5803,,0.0000,,26.9976,,27.0006,,,,,,,,,,,6.1375,6.1303,0.7781,112.293,3.688,3.763,,,,,,,,,,,,
CalCOFI,2105SH,028,,2105_028u,10-May-2021 02:31:12,09-May-2021 18:31:12,33.49016,-119.32336,086.7 045.0,086.7,045.0,498.000,502.166,,6.1843,,6.1862,,6.1853,34.3197,,34.3209,34.3211,,34.3230,34.3220,0.2571,,0.3350,,0.2667,,0.3356,,,11.182,14.1885,15.1558,11.597,17.2051,15.7119,15.4339,0.0359,,,,0.5806,,0.0000,,26.9973,,26.9981,,,,,,,,,,,6.1399,6.1417,0.7781,112.316,3.721,3.859,,,,,,,,,,,,
CalCOFI,2105SH,028,,2105_028u,10-May-2021 02:31:12,09-May-2021 18:31:12,33.49016,-119.32336,086.7 045.0,086.7,045.0,497.000,501.156,,6.1882,,6.1987,,6.1935,34.3198,,34.3210,34.3205,,34.3224,34.3217,0.2629,,0.3410,,0.2694,,0.3384,,,11.431,14.4488,15.4150,11.714,17.4740,15.8321,15.6236,0.0358,,,,0.5808,,0.0000,,26.9968,,26.9960,,,,,,,,,,,6.1438,6.1543,0.7781,112.346,3.805,3.899,,,,,,,,,,,,
CalCOFI,2105SH,028,,2105_028u,10-May-2021 02:31:13,09-May-2021 18:31:13,33.49016,-119.32336,086.7 045.0,086.7,045.0,496.000,500.146,,6.2028,,6.2037,,6.2033,34.3186,,34.3198,34.3217,,34.3236,34.3217,0.2622,,0.3403,,0.2687,,0.3377,,,11.402,14.4185,15.3848,11.687,17.4427,15.8043,15.5946,0.0357,,,,0.5811,,0.0000,,26.9940,,26.9963,,,,,,,,,,,6.1585,6.1594,0.7781,112.618,3.796,3.891,,,,,,,,,,,,
CalCOFI,2105SH,028,,2105_028u,10-May-2021 02:31:14,09-May-2021 18:31:14,33.49016,-119.32336,086.7 045.0,086.7,045.0,495.000,499.137,,6.2351,,6.2266,,6.2309,34.3163,,34.3175,34.3195,,34.3214,34.3195,0.2648,,0.3430,,0.2711,,0.3402,,,11.513,14.5345,15.5003,11.791,17.5626,15.9112,15.7058,0.0357,,,,0.5815,,0.0000,,26.9880,,26.9917,,,,,,,,,,,6.1907,6.1823,0.7781,113.204,3.836,3.928,,,,,,,,,,,,
CalCOFI,2105SH,028,,2105_028u,10-May-2021 02:31:16,09-May-2021 18:31:16,33.49016,-119.32336,086.7 045.0,086.7,045.0,494.000,498.127,,6.2427,,6.2380,,6.2404,34.3166,,34.3178,34.3185,,34.3204,34.3191,0.2667,,0.3450,,0.2749,,0.3441,,,11.599,14.6244,15.5898,11.956,17.6555,16.0807,15.8353,0.0357,,,,0.5821,,0.0000,,26.9873,,26.9894,,,,,,,,,,,6.1984,6.1937,0.7781,113.267,3.865,3.984,,,,,,,,,,,,
CalCOFI,2105SH,028,,2105_028u,10-May-2021 02:31:17,09-May-2021 18:31:17,33.49016,-119.32336,086.7 045.0,086.7,045.0,493.000,497.118,,6.2524,,6.2508,,6.2516,34.3157,,34.3169,34.3177,,34.3196,34.3183,0.2724,,0.3510,,0.2735,,0.3427,,,11.846,14.8826,15.8468,11.892,17.9222,16.0149,15.9309,0.0354,,,,0.5827,,0.0000,,26.9853,,26.9871,,,,,,,,,,,6.2082,6.2066,0.7781,113.447,3.948,3.963,,,,,,,,,,,,
CalCOFI,2105SH,028,,2105_028u,10-May-2021 02:31:18,09-May-2021 18:31:18,33.49016,-119.32338,086.7 045.0,086.7,045.0,492.000,496.108,,6.2435,,6.2419,,6.2427,34.3171,,34.3183,34.3177,,34.3196,34.3190,0.2686,,0.3470,,0.2784,,0.3478,,,11.681,14.7101,15.6751,12.107,17.7440,16.2358,15.9555,0.0362,,,,0.5831,,0.0000,,26.9876,,26.9883,,,,,,,,,,,6.1993,6.1978,0.7781,113.210,3.892,4.034,,,,,,,,,,,,
CalCOFI,2105SH,028,,2105_028u,10-May-2021 02:31:18,09-May-2021 18:31:18,33.49016,-119.32338,086.7 045.0,086.7,045.0,491.000,495.099,,6.2438,,6.2394,,6.2416,34.3165,,34.3177,34.3181,,34.3200,34.3189,0.2706,,0.3491,,0.2820,,0.3515,,,11.765,14.7979,15.7625,12.262,17.8347,16.3951,16.0788,0.0358,,,,0.5835,,0.0000,,26.9871,,26.9889,,,,,,,,,,,6.1997,6.1954,0.7781,113.244,3.921,4.086,,,,,,,,,,,,
CalCOFI,2105SH,028,,2105_028u,10-May-2021 02:31:19,09-May-2021 18:31:19,33.49016,-119.32338,086.7 045.0,086.7,045.0,490.000,494.089,,6.2607,,6.2526,,6.2567,34.3130,,34.3142,34.3174,,34.3193,34.3168,0.2764,,0.3552,,0.2752,,0.3445,,,12.019,15.0635,16.0268,11.969,18.1091,16.0940,16.0604,0.0356,,,,0.5838,,0.0000,,26.9821,,26.9866,,,,,,,,,,,6.2168,6.2086,0.7781,113.718,4.006,3.989,,,,,,,,,,,,
CalCOFI,2105SH,028,,2105_028u,10-May-2021 02:31:20,09-May-2021 18:31:20,33.49016,-119.32338,086.7 045.0,086.7,045.0,489.000,493.079,,6.2914,,6.2835,,6.2875,34.3116,,34.3128,34.3149,,34.3168,34.3148,0.2752,,0.3539,,0.2802,,0.3496,,,11.966,15.0081,15.9717,12.186,18.0518,16.3170,16.1444,0.0366,,,,0.5842,,0.0000,,26.9770,,26.9806,,,,,,,,,,,6.2474,6.2396,0.7781,114.213,3.992,4.064,,,,,,,,,,,,
CalCOFI,2105SH,028,,2105_028u,10-May-2021 02:31:20,09-May-2021 18:31:20,33.49016,-119.32338,086.7 045.0,086.7,045.0,488.000,492.070,,6.2970,,6.2939,,6.2955,34.3125,,34.3137,34.3147,,34.3166,34.3152,0.2743,,0.3530,,0.2854,,0.3550,,,11.930,14.9704,15.9342,12.409,18.0129,16.5461,16.2402,0.0379,,,,0.5846,,0.0000,,26.9770,,26.9791,,,,,,,,,,,6.2530,6.2500,0.7781,114.213,3.980,4.140,,,,,,,,,,,,
CalCOFI,2105SH,028,,2105_028u,10-May-2021 02:31:21,09-May-2021 18:31:21,33.49016,-119.32338,086.7 045.0,086.7,045.0,487.000,491.060,,6.3034,,6.2979,,6.3007,34.3121,,34.3133,34.3145,,34.3164,34.3149,0.2808,,0.3598,,0.2794,,0.3488,,,12.209,15.2621,16.2245,12.148,18.3143,16.2779,16.2512,0.0371,,,,0.5850,,0.0000,,26.9759,,26.9785,,,,,,,,,,,6.2596,6.2541,0.7781,114.309,4.074,4.053,,,,,,,,,,,,
CalCOFI,2105SH,028,,2105_028u,10-May-2021 02:31:22,09-May-2021 18:31:22,33.49016,-119.32338,086.7 045.0,086.7,045.0,486.000,490.051,,6.3061,,6.3034,,6.3048,34.3120,,34.3132,34.3142,,34.3161,34.3147,0.2774,,0.3562,,0.2823,,0.3518,,,12.063,15.1095,16.0726,12.277,18.1566,16.4105,16.2416,0.0362,,,,0.5854,,0.0000,,26.9754,,26.9775,,,,,,,,,,,6.2623,6.2596,0.7781,114.340,4.026,4.097,,,,,,,,,,,,
CalCOFI,2105SH,028,,2105_028u,10-May-2021 02:31:23,09-May-2021 18:31:23,33.49016,-119.32338,086.7 045.0,086.7,045.0,485.000,489.041,,6.3074,,6.3053,,6.3064,34.3124,,34.3136,34.3138,,34.3157,34.3147,0.2754,,0.3541,,0.2891,,0.3588,,,11.976,15.0185,15.9821,12.574,18.0626,16.7156,16.3489,0.0357,,,,0.5858,,0.0000,,26.9755,,26.9769,,,,,,,,,,,6.2637,6.2617,0.7781,114.315,3.996,4.196,,,,,,,,,,,,
CalCOFI,2105SH,028,,2105_028u,10-May-2021 02:31:24,09-May-2021 18:31:24,33.49016,-119.32338,086.7 045.0,086.7,045.0,484.000,488.032,,6.3052,,6.3047,,6.3050,34.3127,,34.3139,34.3137,,34.3156,34.3148,0.2759,,0.3546,,0.2838,,0.3534,,,12.000,15.0436,16.0071,12.341,18.0885,16.4762,16.2417,0.0352,,,,0.5862,,0.0000,,26.9760,,26.9769,,,,,,,,,,,6.2616,6.2610,0.7781,114.252,4.004,4.118,,,,,,,,,,,,
CalCOFI,2105SH,028,,2105_028u,10-May-2021 02:31:25,09-May-2021 18:31:25,33.49016,-119.32338,086.7 045.0,086.7,045.0,483.000,487.022,,6.3079,,6.3126,,6.3103,34.3123,,34.3135,34.3133,,34.3152,34.3144,0.2758,,0.3545,,0.2820,,0.3515,,,11.993,15.0363,15.9998,12.261,18.0810,16.3940,16.1969,0.0359,,,,0.5867,,0.0000,,26.9754,,26.9756,,,,,,,,,,,6.2644,6.2691,0.7781,114.303,4.002,4.092,,,,,,,,,,,,
CalCOFI,2105SH,028,,2105_028u,10-May-2021 02:31:26,09-May-2021 18:31:26,33.49016,-119.32338,086.7 045.0,086.7,045.0,482.000,486.013,,6.3114,,6.3165,,6.3140,34.3120,,34.3132,34.3129,,34.3148,34.3140,0.2788,,0.3577,,0.2819,,0.3514,,,12.127,15.1764,16.1392,12.259,18.2257,16.3920,16.2656,0.0359,,,,0.5871,,0.0000,,26.9747,,26.9747,,,,,,,,,,,6.2680,6.2730,0.7781,114.355,4.047,4.092,,,,,,,,,,,,
CalCOFI,2105SH,028,,2105_028u,10-May-2021 02:31:27,09-May-2021 18:31:27,33.49016,-119.32338,086.7 045.0,086.7,045.0,481.000,485.003,,6.3125,,6.3182,,6.3154,34.3118,,34.3130,34.3126,,34.3145,34.3138,0.2856,,0.3648,,0.2849,,0.3545,,,12.420,15.4827,16.4441,12.390,18.5421,16.5266,16.4854,0.0366,,,,0.5876,,0.0000,,26.9744,,26.9742,,,,,,,,,,,6.2691,6.2748,0.7781,114.372,4.145,4.136,,,,,,,,,,,,
CalCOFI,2105SH,028,,2105_028u,10-May-2021 02:31:28,09-May-2021 18:31:28,33.49016,-119.32338,086.7 045.0,086.7,045.0,480.000,483.994,,6.3143,,6.3143,,6.3143,34.3113,,34.3125,34.3129,,34.3148,34.3137,0.2806,,0.3596,,0.2936,,0.3635,,,12.200,15.2527,16.2152,12.770,18.3045,16.9169,16.5661,0.0361,,,,0.5879,,0.0000,,26.9737,,26.9750,,,,,,,,,,,6.2711,6.2710,0.7781,114.423,4.072,4.262,,,,,,,,,,,,
CalCOFI,2105SH,028,,2105_028u,10-May-2021 02:31:29,09-May-2021 18:31:29,33.49016,-119.32338,086.7 045.0,086.7,045.0,479.000,482.984,,6.3216,,6.3150,,6.3183,34.3103,,34.3115,34.3123,,34.3142,34.3129,0.2824,,0.3614,,0.2898,,0.3596,,,12.282,15.3384,16.3005,12.603,18.3931,16.7454,16.5230,0.0362,,,,0.5882,,0.0000,,26.9720,,26.9744,,,,,,,,,,,6.2785,6.2719,0.7781,114.580,4.100,4.207,,,,,,,,,,,,
CalCOFI,2105SH,028,,2105_028u,10-May-2021 02:31:30,09-May-2021 18:31:30,33.49016,-119.32338,086.7 045.0,086.7,045.0,478.000,481.975,,6.3367,,6.3333,,6.3350,34.3088,,34.3100,34.3126,,34.3145,34.3123,0.2892,,0.3685,,0.2900,,0.3598,,,12.577,15.6468,16.6075,12.609,18.7117,16.7515,16.6795,0.0357,,,,0.5886,,0.0000,,26.9688,,26.9723,,,,,,,,,,,6.2936,6.2902,0.7781,114.877,4.200,4.211,,,,,,,,,,,,
CalCOFI,2105SH,028,,2105_028u,10-May-2021 02:31:31,09-May-2021 18:31:31,33.49016,-119.32338,086.7 045.0,086.7,045.0,477.000,480.965,,6.3580,,6.3523,,6.3552,34.3080,,34.3092,34.3105,,34.3124,34.3108,0.2860,,0.3652,,0.2972,,0.3672,,,12.438,15.5015,16.4628,12.924,18.5616,17.0751,16.7690,0.0362,,,,0.5889,,0.0000,,26.9654,,26.9681,,,,,,,,,,,6.3149,6.3092,0.7781,115.207,4.155,4.317,,,,,,,,,,,,
CalCOFI,2105SH,028,,2105_028u,10-May-2021 02:31:32,09-May-2021 18:31:32,33.49016,-119.32338,086.7 045.0,086.7,045.0,476.000,479.956,,6.3599,,6.3576,,6.3588,34.3091,,34.3103,34.3108,,34.3127,34.3115,0.2838,,0.3629,,0.2917,,0.3615,,,12.343,15.4022,16.3640,12.684,18.4590,16.8286,16.5963,0.0361,,,,0.5892,,0.0000,,26.9660,,26.9677,,,,,,,,,,,6.3169,6.3146,0.7781,115.140,4.124,4.238,,,,,,,,,,,,
CalCOFI,2105SH,028,,2105_028u,10-May-2021 02:31:32,09-May-2021 18:31:32,33.49016,-119.32338,086.7 045.0,086.7,045.0,475.000,478.947,,6.3570,,6.3562,,6.3566,34.3095,,34.3107,34.3103,,34.3122,34.3115,0.2838,,0.3629,,0.2901,,0.3599,,,12.343,15.4022,16.3640,12.614,18.4590,16.7567,16.5604,0.0365,,,,0.5895,,0.0000,,26.9667,,26.9675,,,,,,,,,,,6.3141,6.3133,0.7781,115.051,4.124,4.214,,,,,,,,,,,,
CalCOFI,2105SH,028,,2105_028u,10-May-2021 02:31:33,09-May-2021 18:31:33,33.49016,-119.32338,086.7 045.0,086.7,045.0,474.000,477.937,,6.3534,,6.3519,,6.3527,34.3101,,34.3113,34.3105,,34.3124,34.3119,0.2873,,0.3666,,0.2901,,0.3599,,,12.496,15.5621,16.5232,12.615,18.6242,16.7577,16.6405,0.0358,,,,0.5898,,0.0000,,26.9676,,26.9681,,,,,,,,,,,6.3106,6.3090,0.7781,114.951,4.174,4.214,,,,,,,,,,,,
CalCOFI,2105SH,028,,2105_028u,10-May-2021 02:31:34,09-May-2021 18:31:34,33.49016,-119.32338,086.7 045.0,086.7,045.0,473.000,476.927,,6.3599,,6.3519,,6.3559,34.3070,,34.3082,34.3105,,34.3124,34.3103,0.2936,,0.3731,,0.2934,,0.3633,,,12.766,15.8444,16.8041,12.757,18.9158,16.9036,16.8539,0.0360,,,,0.5901,,0.0000,,26.9643,,26.9682,,,,,,,,,,,6.3171,6.3092,0.7781,115.253,4.265,4.261,,,,,,,,,,,,
CalCOFI,2105SH,028,,2105_028u,10-May-2021 02:31:35,09-May-2021 18:31:35,33.49016,-119.32338,086.7 045.0,086.7,045.0,472.000,475.918,,6.3726,,6.3546,,6.3636,34.3074,,34.3086,34.3107,,34.3126,34.3106,0.2911,,0.3705,,0.3009,,0.3711,,,12.660,15.7336,16.6938,13.084,18.8013,17.2395,16.9667,0.0360,,,,0.5905,,0.0000,,26.9630,,26.9679,,,,,,,,,,,6.3299,6.3120,0.7781,115.380,4.231,4.371,,,,,,,,,,,,
CalCOFI,2105SH,028,,2105_028u,10-May-2021 02:31:36,09-May-2021 18:31:36,33.49016,-119.32338,086.7 045.0,086.7,045.0,471.000,474.909,,6.3834,,6.3703,,6.3769,34.3067,,34.3079,34.3102,,34.3121,34.3100,0.2969,,0.3766,,0.3039,,0.3742,,,12.913,15.9981,16.9571,13.216,19.0746,17.3751,17.1661,0.0354,,,,0.5909,,0.0000,,26.9610,,26.9655,,,,,,,,,,,6.3407,6.3277,0.7781,115.561,4.317,4.417,,,,,,,,,,,,
CalCOFI,2105SH,028,,2105_028u,10-May-2021 02:31:37,09-May-2021 18:31:37,33.49016,-119.32338,086.7 045.0,086.7,045.0,470.000,473.899,,6.3991,,6.4106,,6.4049,34.3060,,34.3072,34.3080,,34.3099,34.3086,0.2976,,0.3773,,0.3022,,0.3724,,,12.941,16.0273,16.9862,13.141,19.1048,17.2981,17.1422,0.0363,,,,0.5913,,0.0000,,26.9584,,26.9585,,,,,,,,,,,6.3565,6.3680,0.7781,115.813,4.328,4.395,,,,,,,,,,,,
CalCOFI,2105SH,028,,2105_028u,10-May-2021 02:31:38,09-May-2021 18:31:38,33.49016,-119.32338,086.7 045.0,086.7,045.0,469.000,472.890,,6.4223,,6.4190,,6.4207,34.3047,,34.3059,34.3065,,34.3084,34.3072,0.3019,,0.3818,,0.3077,,0.3781,,,13.130,16.2249,17.1829,13.380,19.3089,17.5436,17.3633,0.0360,,,,0.5918,,0.0000,,26.9544,,26.9562,,,,,,,,,,,6.3797,6.3765,0.7781,116.201,4.393,4.476,,,,,,,,,,,,
CalCOFI,2105SH,028,,2105_028u,10-May-2021 02:31:39,09-May-2021 18:31:39,33.49016,-119.32338,086.7 045.0,086.7,045.0,468.000,471.880,,6.4152,,6.4110,,6.4131,34.3068,,34.3080,34.3064,,34.3083,34.3082,0.2968,,0.3765,,0.3056,,0.3759,,,12.906,15.9907,16.9498,13.289,19.0670,17.4501,17.2000,0.0360,,,,0.5923,,0.0000,,26.9569,,26.9572,,,,,,,,,,,6.3727,6.3686,0.7781,115.935,4.317,4.445,,,,,,,,,,,,
CalCOFI,2105SH,028,,2105_028u,10-May-2021 02:31:40,09-May-2021 18:31:40,33.49016,-119.32338,086.7 045.0,086.7,045.0,467.000,470.871,,6.4054,,6.4081,,6.4068,34.3059,,34.3071,34.3069,,34.3088,34.3080,0.2984,,0.3782,,0.3023,,0.3725,,,12.977,16.0650,17.0237,13.144,19.1437,17.3012,17.1625,0.0364,,,,0.5927,,0.0000,,26.9575,,26.9579,,,,,,,,,,,6.3630,6.3658,0.7781,115.857,4.340,4.396,,,,,,,,,,,,
CalCOFI,2105SH,028,,2105_028u,10-May-2021 02:31:41,09-May-2021 18:31:41,33.49016,-119.32338,086.7 045.0,086.7,045.0,466.000,469.861,,6.4153,,6.4098,,6.4126,34.3042,,34.3054,34.3067,,34.3086,34.3070,0.3050,,0.3851,,0.3082,,0.3786,,,13.265,16.3660,17.3234,13.403,19.4547,17.5672,17.4453,0.0360,,,,0.5931,,0.0000,,26.9548,,26.9575,,,,,,,,,,,6.3730,6.3675,0.7781,116.107,4.437,4.483,,,,,,,,,,,,
CalCOFI,2105SH,028,,2105_028u,10-May-2021 02:31:42,09-May-2021 18:31:42,33.49016,-119.32338,086.7 045.0,086.7,045.0,465.000,468.852,,6.4325,,6.4213,,6.4269,34.3028,,34.3040,34.3053,,34.3072,34.3056,0.3054,,0.3855,,0.3135,,0.3841,,,13.281,16.3828,17.3400,13.632,19.4720,17.8025,17.5713,0.0360,,,,0.5934,,0.0000,,26.9515,,26.9549,,,,,,,,,,,6.3903,6.3791,0.7781,116.424,4.445,4.561,,,,,,,,,,,,
CalCOFI,2105SH,028,,2105_028u,10-May-2021 02:31:43,09-May-2021 18:31:43,33.49016,-119.32338,086.7 045.0,086.7,045.0,464.000,467.843,,6.4365,,6.4283,,6.4324,34.3044,,34.3056,34.3055,,34.3074,34.3065,0.3010,,0.3809,,0.3073,,0.3777,,,13.091,16.1841,17.1423,13.364,19.2668,17.5272,17.3348,0.0364,,,,0.5938,,0.0000,,26.9522,,26.9541,,,,,,,,,,,6.3943,6.3862,0.7781,116.348,4.382,4.472,,,,,,,,,,,,
CalCOFI,2105SH,028,,2105_028u,10-May-2021 02:31:44,09-May-2021 18:31:44,33.49016,-119.32338,086.7 045.0,086.7,045.0,463.000,466.833,,6.4342,,6.4348,,6.4345,34.3041,,34.3053,34.3055,,34.3074,34.3064,0.3026,,0.3826,,0.3062,,0.3766,,,13.159,16.2552,17.2131,13.316,19.3403,17.4779,17.3455,0.0356,,,,0.5942,,0.0000,,26.9522,,26.9533,,,,,,,,,,,6.3922,6.3927,0.7781,116.327,4.404,4.456,,,,,,,,,,,,
CalCOFI,2105SH,028,,2105_028u,10-May-2021 02:31:45,09-May-2021 18:31:45,33.49016,-119.32338,086.7 045.0,086.7,045.0,462.000,465.824,,6.4385,,6.4417,,6.4401,34.3038,,34.3050,34.3050,,34.3069,34.3060,0.3102,,0.3905,,0.3094,,0.3799,,,13.490,16.6012,17.5575,13.456,19.6977,17.6217,17.5896,0.0359,,,,0.5946,,0.0000,,26.9515,,26.9520,,,,,,,,,,,6.3965,6.3997,0.7781,116.388,4.515,4.504,,,,,,,,,,,,
CalCOFI,2105SH,028,,2105_028u,10-May-2021 02:31:46,09-May-2021 18:31:46,33.49016,-119.32338,086.7 045.0,086.7,045.0,461.000,464.814,,6.4414,,6.4413,,6.4414,34.3039,,34.3051,34.3049,,34.3068,34.3060,0.3065,,0.3866,,0.3165,,0.3872,,,13.330,16.4340,17.3910,13.766,19.5249,17.9402,17.6656,0.0366,,,,0.5949,,0.0000,,26.9511,,26.9519,,,,,,,,,,,6.3995,6.3994,0.7781,116.409,4.462,4.608,,,,,,,,,,,,
CalCOFI,2105SH,028,,2105_028u,10-May-2021 02:31:46,09-May-2021 18:31:46,33.49016,-119.32338,086.7 045.0,086.7,045.0,460.000,463.805,,6.4402,,6.4380,,6.4391,34.3037,,34.3049,34.3049,,34.3068,34.3059,0.3038,,0.3838,,0.3123,,0.3829,,,13.210,16.3085,17.2662,13.580,19.3953,17.7491,17.5077,0.0360,,,,0.5953,,0.0000,,26.9512,,26.9523,,,,,,,,,,,6.3984,6.3962,0.7781,116.388,4.422,4.545,,,,,,,,,,,,